Weather History for KAPC - August, 2013

Change the Weather History Date:

Monday, August 19, 2013

  Actual Average Record
Temperature  
Mean Temperature 72 °F 66 °F  
Max Temperature 84 °F 80 °F 84 °F (2013)
Min Temperature 59 °F 52 °F 48 °F (1999)
Degree Days  
Heating Degree Days 0    
Month to date heating degree days 16  
Since 1 June heating degree days 66  
Since 1 July heating degree days 36  
Cooling Degree Days 7    
Month to date cooling degree days 43  
Year to date cooling degree days 191  
Since 1 June cooling degree days 171  
Growing Degree Days 22 (Base 50)    
Moisture  
Dew Point 58 °F    
Average Humidity 67    
Maximum Humidity 90    
Minimum Humidity 43    
Precipitation  
Precipitation 0.00 in - 0.25 in (1976)
Month to date precipitation 0.00  
Year to date precipitation 1.97  
Since 1 July precipitation 0.00  
Sea Level Pressure  
Sea Level Pressure 29.82 in    
Wind  
Wind Speed 8 mph (SSW)    
Max Wind Speed 20 mph    
Max Gust Speed 48 mph    
Visibility 10 miles    
Events      
T = Trace of Precipitation, MM = Missing Value Source: NWS Daily Summary

Daily Weather History Graph

Daily Weather History Graph

Search for Another Location

Airport or City:

Trip Planner

Search our weather history database for the weather conditions in past years. The results will help you decide how hot, cold, wet, or windy it might be!

Date:

Astronomy

Aug. 19, 2013 Rise Set
Actual Time 6:27 AM PDT 7:56 PM PDT
Civil Twilight 5:59 AM PDT 8:24 PM PDT
Nautical Twilight 5:26 AM PDT 8:58 PM PDT
Astronomical Twilight 4:51 AM PDT 9:33 PM PDT
Moon 6:51 PM PDT (8/19) 4:53 AM PDT (8/19)
Length of Visible Light 14h 24m
Length of Day
13h 29m
Waxing Gibbous, 98% of the Moon is Illuminated
Aug 19
Waxing Gibbous
Aug 20
Full
Aug 28
Last Quarter
Sep 5
New
Sep 12
First Quarter

Hourly Weather History & Observations

Time (PDT) Temp. Heat Index Dew Point Humidity Pressure Visibility Wind Dir Wind Speed Gust Speed Precip Events Conditions
12:54 AM 64.0 °F - 59.0 °F 84% 29.79 in 10.0 mi Calm Calm - N/A   Clear
1:54 AM 64.9 °F - 59.0 °F 81% 29.79 in 10.0 mi Calm Calm - N/A   Clear
2:54 AM 63.0 °F - 57.0 °F 81% 29.78 in 10.0 mi Calm Calm - N/A   Clear
3:54 AM 61.0 °F - 57.0 °F 87% 29.77 in 10.0 mi NNW 3.5 mph - N/A   Clear
4:54 AM 62.1 °F - 57.9 °F 86% 29.78 in 10.0 mi SSW 5.8 mph - N/A   Clear
5:54 AM 62.1 °F - 57.9 °F 86% 29.80 in 10.0 mi South 4.6 mph - N/A   Clear
6:54 AM 62.1 °F - 57.9 °F 86% 29.83 in 10.0 mi SE 3.5 mph - N/A   Scattered Clouds
7:54 AM 64.9 °F - 59.0 °F 81% 29.85 in 10.0 mi Calm Calm - N/A   Clear
8:54 AM 66.9 °F - 57.9 °F 73% 29.86 in 10.0 mi South 3.5 mph - N/A   Clear
9:54 AM 71.1 °F - 57.9 °F 63% 29.86 in 10.0 mi SSW 4.6 mph - N/A   Clear
10:54 AM 73.0 °F - 59.0 °F 61% 29.87 in 10.0 mi SW 5.8 mph - N/A   Clear
11:54 AM 75.9 °F - 59.0 °F 56% 29.87 in 10.0 mi Variable 5.8 mph - N/A   Overcast
12:54 PM 81.0 °F 81.1 °F 57.9 °F 45% 29.85 in 10.0 mi SSW 9.2 mph - N/A   Clear
1:54 PM 82.9 °F 82.6 °F 57.9 °F 42% 29.83 in 10.0 mi SSW 9.2 mph - N/A   Clear
2:54 PM 82.0 °F 82.1 °F 59.0 °F 45% 29.83 in 10.0 mi SSW 11.5 mph - N/A   Clear
3:54 PM 81.0 °F 81.6 °F 60.1 °F 49% 29.81 in 10.0 mi South 12.7 mph - N/A   Clear
4:54 PM 81.0 °F 81.6 °F 60.1 °F 49% 29.79 in 10.0 mi SSW 15.0 mph - N/A   Clear
5:54 PM 78.1 °F - 60.1 °F 54% 29.78 in 10.0 mi South 13.8 mph - N/A   Clear
6:54 PM 73.0 °F - 57.9 °F 59% 29.78 in 10.0 mi SSW 16.1 mph - N/A   Clear
7:54 PM 68.0 °F - 57.9 °F 70% 29.79 in 10.0 mi South 9.2 mph - N/A   Clear
8:54 PM 64.9 °F - 59.0 °F 81% 29.81 in 10.0 mi South 12.7 mph - N/A   Clear
9:54 PM 64.9 °F - 57.0 °F 75% 29.84 in 10.0 mi WNW 3.5 mph - N/A   Clear
10:54 PM 64.0 °F - 55.9 °F 75% 29.85 in 10.0 mi WSW 9.2 mph - N/A   Clear
11:54 PM 62.1 °F - 55.9 °F 80% 29.86 in 10.0 mi WSW 12.7 mph - N/A   Clear